Location: Newark
(52.4787°S, 179.0532°W)
Time: 12:46:58
(UTC+00:00)

Vanguard 1 - Pass Details

Date: 18 November 2019
Orbit: 651 x 3832 km, 34.3° (Epoch: 11 December)

Event Time Altitude Azimuth Distance (km) Brightness Sun altitude
Rises 12:55:18 0° 289° (WNW) 6,221 13.8 -16.5°
Reaches altitude 10° 12:59:07 10° 295° (WNW) 5,574 13.5 -16.3°
Maximum altitude 13:16:02 45° 359° (N) 4,439 12.9 -15.4°
Drops below altitude 10° 13:37:09 10° 61° (ENE) 6,823 14.3 -14.0°
Sets 13:42:29 0° 66° (ENE) 7,661 14.7 -13.6°
